www.pogodaiklimat.ru

Погода и климат >> Архив погоды >> Бразилия >> Esperantina


ПОГОДА в Esperantina

  • Прогноз погоды в Esperantina
  • Монитор погоды в Esperantina
  • Климат города

АРХИВ ПОГОДЫ в Esperantina

Время (UTC), дата Ветер
(напр.,м/с)
 
Видим.   Явления Облачность Т
(С)
Тd
(С)
f
(%)
Тe
(С)
Тes
(С)
Комфортность P
(гПа)
Po
(гПа)
Тmin
(С)
Tmax
(С)
R
(мм)
R24
(мм)
S
(см)
04 16.01 штиль 0 н/о н/о +23.4 +21.2 87 +31 +31 очень
душно
1010.7 1000.5
05 16.01 штиль 0 н/о н/о +22.6 +21.0 91 +30 +30 очень
душно
1010.3 1000.1
06 16.01 штиль 0 н/о н/о +22.2 +20.9 92 +29 +29 очень
душно
1010.6 1000.4
07 16.01 штиль 0 н/о н/о +22.0 +20.7 92 +28 +28 душно 1010.8 1000.6
08 16.01 штиль 0 н/о н/о +21.8 +20.6 93 +28 +28 душно 1011.3 1001.0
09 16.01 штиль 0 н/о н/о +21.5 +20.3 93 +27 +27 душно 1012.0 1001.7
10 16.01 штиль 0 н/о н/о +23.4 +21.5 89 +32 +32 очень
душно
1012.8 1002.6
11 16.01 Ю 1
{1}
н/о н/о +27.0 +21.2 71 +34 +34 очень
душно
1013.1 1003.0
12 16.01 В 1
{3}
н/о н/о +30.1 +18.6 50 +35 +35 очень
душно
1013.2 1003.2
13 16.01 В 1
{4}
н/о н/о +32.1 +18.3 44 +37 +37 очень
душно
1013.0 1003.1
14 16.01 В 2
{4}
н/о н/о +33.6 +15.5 34 +36 +36 очень
душно
1012.7 1002.8
15 16.01 В 1
{3}
н/о н/о +35.1 +16.0 32 +37 +37 очень
душно
1011.7 1001.9
16 16.01 В 1
{4}
н/о н/о +36.2 +13.4 26 +37 +37 очень
жарко
1010.7 1000.9
17 16.01 В 2
{3}
н/о н/о +36.7 +14.7 27 +38 +38 очень
душно
1009.6 999.8
18 16.01 Ю 1
{3}
н/о н/о +36.7 +12.9 24 +37 +37 очень
жарко
1008.3 998.6
19 16.01 ЮВ 1
{3}
н/о н/о +36.6 +14.5 27 +38 +38 очень
душно
1007.5 997.8
20 16.01 штиль 0
{2}
н/о н/о +34.8 +19.7 41 +40 +40 очень
душно
1007.5 997.7
21 16.01 З 1
{2}
н/о н/о +32.0 +18.8 46 +37 +37 очень
душно
1008.4 998.5
22 16.01 С 1
{2}
н/о н/о +30.5 +19.4 52 +36 +36 очень
душно
1009.4 999.5
23 16.01 С 2
{4}
н/о н/о +29.5 +21.1 61 +37 +37 очень
душно
1010.3 1000.3
00 17.01 С 1
{4}
н/о н/о +28.4 +21.5 66 +36 +36 очень
душно
1011.3 1001.3
01 17.01 СЗ 1
{3}
н/о н/о +27.3 +21.9 72 +35 +35 очень
душно
1012.3 1002.2
02 17.01 С 1
{3}
н/о н/о +26.2 +22.2 79 +34 +34 очень
душно
1011.9 1001.8
03 17.01 СЗ 1
{2}
н/о н/о +25.6 +22.3 82 +33 +33 очень
душно
1011.5 1001.4
04 17.01 СЗ 1
{2}
н/о н/о +25.0 +22.3 85 +33 +33 очень
душно
1010.6 1000.5
05 17.01 штиль 0
{2}
н/о н/о +24.7 +22.0 85 +32 +32 очень
душно
1009.9 999.8
06 17.01
{3}
н/о н/о +24.0 +21.4 85 1009.8 999.6
07 17.01 штиль 0
{2}
н/о н/о +23.5 +21.1 86 +30 +30 очень
душно
1009.4 999.2
08 17.01 штиль 0 н/о н/о +23.0 +20.9 88 +30 +30 очень
душно
1009.6 999.4
09 17.01 штиль 0 н/о н/о +22.4 +20.8 91 +29 +29 очень
душно
1010.4 1000.2
10 17.01 штиль 0 н/о н/о +24.0 +21.5 86 +31 +31 очень
душно
1011.6 1001.4
11 17.01 ЮВ 1
{2}
н/о н/о +26.1 +21.2 74 +33 +33 очень
душно
1012.3 1002.2
12 17.01 ЮВ 1
{3}
н/о н/о +28.8 +21.4 64 +36 +36 очень
душно
1012.7 1002.7
13 17.01 В 1
{3}
н/о н/о +30.9 +20.7 55 +38 +38 очень
душно
1012.4 1002.4
14 17.01 В 1
{4}
н/о н/о +32.9 +20.3 48 +40 +40 очень
душно
1011.9 1002.0
15 17.01 ЮВ 1
{3}
н/о н/о +33.7 +18.3 40 +38 +38 очень
душно
1011.0 1001.1
16 17.01 Ю 1
{5}
н/о н/о +34.2 +18.1 39 +38 +38 очень
душно
1010.1 1000.3
17 17.01 штиль 0
{2}
н/о н/о +33.4 +17.9 40 +38 +38 очень
душно
1009.3 999.4
18 17.01 СЗ 1
{2}
н/о н/о +33.1 +20.7 48 +40 +40 очень
душно
1008.5 998.6
19 17.01 штиль 0
{2}
н/о н/о +31.5 +21.6 56 +40 +40 очень
душно
1008.2 998.3
20 17.01 штиль 0 н/о н/о +30.9 +21.6 58 +39 +39 очень
душно
1007.9 998.0
21 17.01 штиль 0 н/о н/о +30.2 +22.5 63 +39 +39 очень
душно
1008.7 998.7
22 17.01 С 2
{5}
н/о н/о +29.1 +21.0 62 +37 +37 очень
душно
1009.9 999.9
23 17.01 С 2
{4}
н/о н/о +28.3 +21.1 65 +36 +36 очень
душно
1010.4 1000.4
00 18.01 С 1
{3}
н/о н/о +27.4 +21.2 69 +35 +35 очень
душно
1011.6 1001.5
01 18.01 С 1
{3}
н/о н/о +26.8 +21.4 72 +34 +34 очень
душно
1012.1 1002.0
02 18.01 штиль 0
{2}
н/о н/о +26.0 +21.5 76 +33 +33 очень
душно
1011.8 1001.7
03 18.01 штиль 0 н/о н/о +25.7 +21.5 78 +33 +33 очень
душно
1011.6 1001.5
04 18.01 штиль 0 н/о н/о +25.1 +21.1 78 +32 +32 очень
душно
1010.8 1000.7
05 18.01 штиль 0 н/о н/о +24.5 +21.1 81 +31 +31 очень
душно
1010.8 1000.6
06 18.01 штиль 0 н/о н/о +23.4 +21.2 87 +31 +31 очень
душно
1010.5 1000.3
07 18.01 штиль 0 н/о н/о +22.9 +21.0 89 +30 +30 очень
душно
1010.2 1000.0
08 18.01 штиль 0 н/о н/о +22.7 +21.0 90 +30 +30 очень
душно
1010.2 1000.0
09 18.01 штиль 0 н/о н/о +22.7 +20.8 89 +30 +30 очень
душно
1011.0 1000.8
10 18.01 штиль 0 н/о н/о +23.8 +21.5 87 +30 +30 очень
душно
1012.1 1001.9
11 18.01 штиль 0 н/о н/о +27.3 +21.2 69 +34 +34 очень
душно
1012.9 1002.8
12 18.01 штиль 0 н/о н/о +29.5 +20.8 60 +37 +37 очень
душно
1013.1 1003.1
13 18.01 В 1
{3}
н/о н/о +31.2 +20.3 52 +38 +38 очень
душно
1013.1 1003.1
14 18.01 В 1
{3}
н/о н/о +33.5 +20.6 47 +40 +40 очень
душно
1012.6 1002.7
15 18.01 В 1
{3}
н/о н/о +34.3 +19.7 42 +40 +40 очень
душно
1011.5 1001.7
16 18.01 СВ 1
{3}
н/о н/о +33.4 +18.7 42 +38 +38 очень
душно
1010.5 1000.6
17 18.01 штиль 0
{2}
н/о н/о +35.0 +16.8 34 +38 +38 очень
душно
1008.8 999.0
18 18.01 С 1
{3}
н/о н/о +32.2 +20.8 51 +39 +39 очень
душно
1008.0 998.1
19 18.01
{4}
н/о н/о +27.7 +21.6 69 1008.4 998.4
20 18.01 СЗ 1
{5}
н/о н/о +26.4 +21.6 75 +34 +34 очень
душно
1010.1 1000.0
21 18.01 штиль 0
{3}
н/о н/о +23.3 +21.0 87 +31 +31 очень
душно
1010.9 1000.7 0.8
22 18.01 штиль 0
{4}
н/о н/о +22.7 +20.8 89 +30 +30 очень
душно
1011.8 1001.6
23 18.01 штиль 0 н/о н/о +22.4 +21.0 92 +29 +29 очень
душно
1012.6 1002.3 0.2
00 19.01 штиль 0 н/о н/о +22.8 +21.3 91 +30 +30 очень
душно
1012.8 1002.6
01 19.01 штиль 0 н/о н/о +23.2 +21.6 91 +31 +31 очень
душно
1013.0 1002.8
02 19.01 штиль 0 н/о н/о +23.3 +21.8 91 +32 +32 очень
душно
1012.7 1002.5
03 19.01 штиль 0 н/о н/о +23.3 +22.0 92 +32 +32 очень
душно
1012.3 1002.1
04 19.01 штиль 0 н/о н/о +23.5 +22.1 92 +30 +30 очень
душно
1012.5 1002.3
05 19.01 штиль 0 н/о н/о +23.5 +22.2 92 +30 +30 очень
душно
1012.0 1001.8
06 19.01 штиль 0 н/о н/о +23.5 +22.2 92 +30 +30 очень
душно
1011.9 1001.7
07 19.01 штиль 0
{2}
н/о н/о +23.8 +22.4 92 +31 +31 очень
душно
1011.8 1001.6
08 19.01 штиль 0
{2}
н/о н/о +23.7 +22.1 91 +31 +31 очень
душно
1011.7 1001.5
09 19.01 штиль 0 н/о н/о +23.6 +22.2 92 +31 +31 очень
душно
1012.5 1002.3
10 19.01 штиль 0 н/о н/о +24.6 +22.7 89 +32 +32 очень
душно
1013.5 1003.3
11 19.01 штиль 0 н/о н/о +25.9 +22.9 84 +35 +35 очень
душно
1013.9 1003.8
12 19.01 штиль 0 н/о н/о +26.8 +22.3 76 +35 +35 очень
душно
1014.1 1004.0
13 19.01 В 1
{2}
н/о н/о +29.6 +21.1 60 +37 +37 очень
душно
1014.3 1004.3
14 19.01 Ю 1
{2}
н/о н/о +30.5 +21.0 57 +38 +38 очень
душно
1014.1 1004.1
15 19.01 З 1
{2}
н/о н/о +31.1 +20.2 52 +38 +38 очень
душно
1013.1 1003.1 0.2
16 19.01 СЗ 2
{3}
н/о н/о +30.1 +21.0 58 +37 +37 очень
душно
1012.3 1002.3
17 19.01 СЗ 1
{3}
н/о н/о +31.0 +20.6 54 +38 +38 очень
душно
1011.2 1001.2
18 19.01 Ю 1
{3}
н/о н/о +28.1 +22.9 73 +37 +37 очень
душно
1010.3 1000.3 0.2
19 19.01 СЗ 2
{4}
н/о н/о +29.4 +21.1 61 +37 +37 очень
душно
1009.8 999.8
20 19.01 СЗ 1
{4}
н/о н/о +27.1 +22.4 76 +36 +36 очень
душно
1010.2 1000.1
21 19.01 СЗ 1
{3}
н/о н/о +26.1 +21.2 74 +33 +33 очень
душно
1011.2 1001.1
22 19.01 С 1
{3}
н/о н/о +25.5 +22.1 81 +33 +33 очень
душно
1011.7 1001.6
23 19.01 штиль 0
{3}
н/о н/о +25.1 +22.5 86 +33 +33 очень
душно
1013.2 1003.0
00 20.01 штиль 0
{5}
н/о н/о +24.1 +22.6 91 +32 +32 очень
душно
1012.9 1002.7 7
01 20.01 штиль 0
{4}
н/о н/о +24.3 +22.4 89 +32 +32 очень
душно
1012.9 1002.7 1
02 20.01 штиль 0
{2}
н/о н/о +24.5 +22.9 91 +32 +32 очень
душно
1013.8 1003.6 0.2
03 20.01 штиль 0 н/о н/о +24.2 +22.9 92 +32 +32 очень
душно
1013.6 1003.4
04 20.01 штиль 0 н/о н/о +24.3 +23.0 92 +32 +32 очень
душно
1012.9 1002.7
05 20.01 штиль 0 н/о н/о +24.1 +22.8 92 +32 +32 очень
душно
1012.5 1002.3
06 20.01 штиль 0 н/о н/о +23.7 +22.5 93 +31 +31 очень
душно
1011.8 1001.6
07 20.01 штиль 0 н/о н/о +23.6 +22.5 94 +31 +31 очень
душно
1011.8 1001.6
08 20.01 штиль 0 н/о н/о +23.7 +22.6 94 +31 +31 очень
душно
1011.9 1001.7
09 20.01 штиль 0 н/о н/о +23.5 +22.5 94 +31 +31 очень
душно
1012.4 1002.2
10 20.01 штиль 0 н/о н/о +24.4 +23.3 94 +33 +33 очень
душно
1012.9 1002.7
11 20.01 штиль 0 н/о н/о +27.0 +22.7 77 +36 +36 очень
душно
1013.4 1003.3
12 20.01 штиль 0 н/о н/о +28.7 +22.8 70 +38 +38 очень
душно
1014.1 1004.0
13 20.01 штиль 0
{1}
н/о н/о +29.4 +22.4 66 +38 +38 очень
душно
1014.0 1004.0
14 20.01 В 1
{3}
н/о н/о +31.1 +22.8 61 +41 +41 опасность
перегрева
1013.8 1003.8
15 20.01 В 1
{4}
н/о н/о +31.4 +22.1 58 +40 +40 очень
душно
1013.2 1003.2
16 20.01 В 1
{3}
н/о н/о +32.8 +20.3 48 +39 +39 очень
душно
1011.8 1001.9
17 20.01 В 1
{3}
н/о н/о +33.5 +19.1 43 +39 +39 очень
душно
1010.4 1000.5
18 20.01 ЮВ 1
{3}
н/о н/о +34.2 +19.2 41 +39 +39 очень
душно
1009.1 999.3
19 20.01 Ю 2
{4}
н/о н/о +31.2 +21.0 55 +39 +39 очень
душно
1009.2 999.3
20 20.01 Ю 1
{4}
н/о н/о +29.6 +21.9 63 +38 +38 очень
душно
1009.3 999.3
21 20.01 СЗ 1
{2}
н/о н/о +28.5 +22.5 70 +37 +37 очень
душно
1009.9 999.9
22 20.01 С 1
{4}
н/о н/о +27.1 +20.9 69 +34 +34 очень
душно
1010.8 1000.7
23 20.01 СЗ 1
{2}
н/о н/о +25.8 +21.2 76 +33 +33 очень
душно
1011.9 1001.8
00 21.01 штиль 0
{2}
н/о н/о +25.3 +21.2 78 +32 +32 очень
душно
1013.3 1003.1
01 21.01 штиль 0
{2}
н/о н/о +24.9 +21.7 82 +32 +32 очень
душно
1013.4 1003.2
02 21.01 С 1
{2}
н/о н/о +24.8 +22.0 84 +32 +32 очень
душно
1012.9 1002.7
03 21.01 штиль 0
{2}
н/о н/о +25.0 +22.4 86 +33 +33 очень
душно
1012.9 1002.7
04 21.01 штиль 0 н/о н/о +24.5 +22.4 88 +32 +32 очень
душно
1011.9 1001.7
05 21.01 штиль 0 н/о н/о +24.6 +22.5 88 +32 +32 очень
душно
1011.9 1001.7
06 21.01 штиль 0 н/о н/о +24.3 +22.5 90 +32 +32 очень
душно
1011.6 1001.4
07 21.01 штиль 0 н/о н/о +23.8 +22.4 92 +31 +31 очень
душно
1011.7 1001.5
08 21.01 штиль 0 н/о н/о +23.8 +22.4 92 +31 +31 очень
душно
1011.5 1001.3
09 21.01 штиль 0 н/о н/о +23.6 +22.3 92 +31 +31 очень
душно
1011.5 1001.3
10 21.01 штиль 0 н/о н/о +24.4 +23.0 92 +32 +32 очень
душно
1012.0 1001.8
11 21.01 штиль 0 н/о н/о +26.3 +23.3 84 +36 +36 очень
душно
1012.4 1002.3
12 21.01 СВ 1
{2}
н/о н/о +28.8 +22.1 67 +37 +37 очень
душно
1012.7 1002.7 0.2
13 21.01 СВ 1
{2}
н/о н/о +30.2 +22.9 65 +40 +40 очень
душно
1012.8 1002.8
14 21.01 СВ 1
{3}
н/о н/о +30.5 +21.7 59 +39 +39 очень
душно
1012.3 1002.3
15 21.01 В 1
{3}
н/о н/о +32.3 +21.5 53 +40 +40 очень
душно
1011.3 1001.4
16 21.01 СВ 1
{2}
н/о н/о +33.0 +19.7 46 +39 +39 очень
душно
1010.2 1000.3
17 21.01 Ю 1
{2}
н/о н/о +33.9 +19.6 43 +40 +40 очень
душно
1008.7 998.9
18 21.01 ЮВ 1
{3}
н/о н/о +31.5 +21.7 56 +40 +40 очень
душно
1008.4 998.5
19 21.01 ЮЗ 1
{5}
н/о н/о +27.0 +23.8 83 +37 +37 очень
душно
1007.8 997.8 2
20 21.01 З 1
{2}
н/о н/о +27.5 +22.9 76 +37 +37 очень
душно
1007.6 997.6
21 21.01 С 1
{3}
н/о н/о +26.7 +22.0 75 +34 +34 очень
душно
1009.6 999.5
22 21.01 С 2
{4}
н/о н/о +24.5 +20.2 77 +30 +30 очень
душно
1010.4 1000.2
23 21.01 штиль 0
{4}
н/о н/о +23.4 +19.4 78 +30 +30 очень
душно
1011.0 1000.8
00 22.01 штиль 0
{1}
н/о н/о +22.7 +20.3 86 +29 +29 очень
душно
1011.7 1001.5 0.2
01 22.01 штиль 0 н/о н/о +22.9 +21.1 90 +30 +30 очень
душно
1011.8 1001.6 0.2
02 22.01 штиль 0
{3}
н/о н/о +24.2 +21.7 86 +31 +31 очень
душно
1011.8 1001.6
03 22.01 штиль 0
{1}
н/о н/о +23.6 +21.6 89 +30 +30 очень
душно
1010.8 1000.6
04 22.01 штиль 0
{2}
н/о н/о +23.5 +21.7 90 +30 +30 очень
душно
1010.1 999.9
05 22.01 штиль 0 н/о н/о +23.7 +22.0 90 +31 +31 очень
душно
1009.5 999.3
06 22.01 штиль 0
{2}
н/о н/о +23.2 +21.7 91 +31 +31 очень
душно
1009.1 998.9
07 22.01 штиль 0
{2}
н/о н/о +23.0 +21.7 92 +31 +31 очень
душно
1009.1 998.9
08 22.01 штиль 0 н/о н/о +22.8 +21.6 93 +30 +30 очень
душно
1009.1 998.9
09 22.01 штиль 0 н/о н/о +23.2 +22.0 93 +32 +32 очень
душно
1010.0 999.8
10 22.01 штиль 0 н/о н/о +24.5 +22.8 90 +32 +32 очень
душно
1010.4 1000.2
11 22.01 штиль 0 н/о н/о +25.9 +22.7 83 +34 +34 очень
душно
1011.4 1001.3
12 22.01 СВ 1
{3}
н/о н/о +28.8 +22.3 68 +38 +38 очень
душно
1011.5 1001.5
13 22.01 В 1
{4}
н/о н/о +30.8 +21.7 58 +39 +39 очень
душно
1011.4 1001.4
14 22.01 СВ 1
{4}
н/о н/о +30.4 +21.6 59 +38 +38 очень
душно
1010.9 1000.9
15 22.01 СВ 1
{4}
н/о н/о +31.4 +21.4 55 +39 +39 очень
душно
1010.2 1000.3
16 22.01 Ю 1
{2}
н/о н/о +31.9 +20.6 51 +39 +39 очень
душно
1009.3 999.4
17 22.01 З 1
{2}
н/о н/о +33.6 +20.6 47 +41 +41 опасность
перегрева
1007.7 997.9
18 22.01 СЗ 1
{2}
н/о н/о +33.6 +19.9 45 +40 +40 очень
душно
1007.0 997.2
19 22.01 СВ 2
{5}
н/о н/о +28.4 +21.3 65 +36 +36 очень
душно
1008.1 998.1
20 22.01 штиль 0
{9}
н/о н/о +21.8 +20.9 95 +28 +28 душно 1009.0 998.8 56
21 22.01 С 1
{4}
н/о н/о +22.7 +21.7 94 +30 +30 очень
душно
1009.6 999.4 16
22 22.01 штиль 0
{4}
н/о н/о +22.6 +21.5 94 +30 +30 очень
душно
1009.4 999.2 2
23 22.01 С 1
{2}
н/о н/о +22.5 +21.2 92 +30 +30 очень
душно
1010.2 1000.0 2
00 23.01 штиль 0
{2}
н/о н/о +22.3 +21.0 92 +29 +29 очень
душно
1011.1 1000.9 3
01 23.01 штиль 0 н/о н/о +22.6 +21.2 92 +30 +30 очень
душно
1011.7 1001.5 2
02 23.01 штиль 0 н/о н/о +22.5 +21.3 93 +30 +30 очень
душно
1011.5 1001.3 2

 

Местоположение метеостанции Esperantina (Бразилия): широта -3.90 долгота -42.27 высота над уровнем моря 67 м.

В архиве по умолчанию представлена погода в Esperantina за последнюю неделю. Архивные данные за месяц целиком и за предыдущие месяцы, начиная с января 2011 года, Вы можете получить, выбрав интересующий диапазон дат из раскрывающегося списка и нажав кнопку "Ввод!".

Внимание! Время в таблицах - всемирное. Для получения местного времени необходимо прибавить поправку, которая в Esperantina равна -3 ч.

Смотрите также архив погоды в соседних городах и на ближайших метеорологических станциях:

Погода в Piripiri (Бразилия) (67 км)
Погода в Parnaiba (Бразилия) (106 км)
Погода в Parnaiba (Бразилия) (107 км)
Погода в Chapadinha (Бразилия) (121 км)
Погода в Teresina (Бразилия) (140 км)
Погода в Teresina (Бразилия) (141 км)
Погода в Caxias (Бразилия) (158 км)
Погода в Caxias (Бразилия) (161 км)
Погода в Castelo do Piaui (Бразилия) (181 км)
Погода в Sobral (Бразилия) (214 км)

Пояснения к столбцам:

Ветер - указаны скорость ветра в м/с - средняя за 10 мин, порывы в срок и между сроками (в фигурных скобках) и направление, откуда дует ветер: С - северный, СВ - северо-восточный, В - восточный, ЮВ - юго-восточный, Ю - южный, ЮЗ - юго-западный, З - западный, СЗ - северо-западный.
Видимость - горизонтальная дальность видимости в метрах или километрах. При видимости от 1 до 10 км при отсутствии осадков обычно наблюдается дымка, при ухудшении видимости до 1 км и менее - туман. В сухую погоду видимость может ухудшаться дымом, пылью или мглою.
Явления - указаны атмосферные явления, наблюдавшиеся в срок или в последний час перед сроком; фигурными скобками обозначены явления, наблюдавшиеся между сроками (за 1-3 часа до срока); квадратными скобками обозначены град или гололедные отложения с указанием их диаметра в мм.
Облачность - указаны через наклонную черту общая и нижняя облачность в баллах и высота нижней границы облаков в метрах; квадратными скобками обозначены формы облаков: Ci - перистые, Cs - перисто-слоистые, Cc - перисто-кучевые, Ac - высококучевые, As - высокослоистые, Sc - слоисто-кучевые, Ns - слоисто-дождевые, Cu - кучевые, Cb - кучево-дождевые. Подробнее классификацию облаков см. в Атласе облаков (PDF).
T - Температура воздуха - температура, измеренная на высоте 2 м над землей.
Td - Температура точки росы - температура, при понижении до которой содержащийся в воздухе водяной пар достигнет насыщения.
f - Относительная влажность воздуха - влажноcть воздуха, измеренная на высоте 2 м над землей.
Te - Эффективная температура - температура, которую ощущает одетый по сезону человек в тени. Характеристика душности погоды. При расчете учитывается влияние влажности воздуха и скорости ветра на теплоощущения человека.
Tes - Эффективная температура на солнце - температура, которую ощущает человек, с поправкой на солнечный нагрев. Характеристика знойности погоды. Зависит от высоты солнца над горизонтом, облачности и скорости ветра. Ночью, в пасмурную погоду, а также при ветре 12 м/с и более поправка равна нулю.
P - Атмосферное давление - приведенное к уровню моря атмосферное давление.
Po - Атмосферное давление - измеренное на уровне метеостанции атмосферное давление.
Tmin - Минимальная температура - минимум температуры воздуха на высоте 2 м над землей.
Tmax - Максимальная температура - максимум температуры воздуха на высоте 2 м над землей.
R - Количество осадков - Количество выпавших осадков за период времени, мм. При наведении курсора мыши на число - период времени, за который выпало указанное количество осадков.
R24 - Количество осадков - Количество выпавших осадков за 24 часа, мм.
S - Снежный покров - Высота снежного покрова, см. При наведении курсора мыши на число - состояние снежного покрова и степень покрытия местности в баллах.